Preview of NWS' New Version of Forecast
This preview is not operational and should not be used for support decisions.

Regional Weather Roundup (RWR)

Issued by National Weather Service (NWS)

                            
000
ASUS45 KCYS 231610
RWRWY 

WYOMING REGIONAL WEATHER ROUNDUP
NATIONAL WEATHER SERVICE CHEYENNE WY
1000 AM MDT FRI AUG 23 2019

NOTE:  "FAIR" INDICATES FEW OR NO CLOUDS BELOW 12,000 FEET
WITH NO SIGNIFICANT WEATHER AND/OR OBSTRUCTIONS TO VISIBILITY.

WYZ001-231700-
YELLOWSTONE NATIONAL PARK
  
CITY           SKY/WX    TMP DP  RH WIND       PRES   REMARKS
LK YELLOWSTONE   N/A     52  44  74 SE5       30.22R                  
W YELLOWSTONE  NOT AVBL                                               

$$
WYZ002>013-054>058-071-098>099-231700-
NORTHERN WYOMING
  
CITY           SKY/WX    TMP DP  RH WIND       PRES   REMARKS
JACKSON        FAIR      54  40  59 CALM      30.14S                  
CODY           FAIR      63  51  65 NE9       30.10S                  
GREYBULL       FAIR      70  50  49 SE8       30.01S                  
WORLAND        CLOUDY    66  51  58 NW6       30.04R                  
SHERIDAN       CLOUDY    65  56  72 NW8       30.06R                  
BUFFALO        PTSUNNY   65  53  65 N12       30.09S                  
GILLETTE       FAIR      68  58  70 N9        30.03R                  
HULETT         CLOUDY    63  61  94 CALM      30.03R                  
NEWCASTLE      FAIR      70  54  56 W6        30.01                   

$$
WYZ014>020-022>026-101>103-231700-
CENTRAL WYOMING
  
CITY           SKY/WX    TMP DP  RH WIND       PRES   REMARKS
BIG PINEY      FAIR      61  37  41 VRB3      30.15S                  
PINEDALE       FAIR      61  34  36 CALM      30.16R                  
DUBOIS         FAIR      54  34  47 N5        30.16                   
LANDER         PTSUNNY   63  47  55 NW5       30.09F                  
RIVERTON       FAIR      66  47  50 NE13      30.08S                  
CASPER         CLOUDY    63  53  70 N10       30.09R                  
DOUGLAS          N/A     70  55  59 NW10      30.05S                  

$$
WYZ021-027>030-104>119-231700-
SOUTHERN WYOMING
  
CITY           SKY/WX    TMP DP  RH WIND       PRES   REMARKS
EVANSTON       FAIR      61  38  42 CALM      30.16R                  
KEMMERER       FAIR      63  36  36 CALM      30.17S                  
ROCK SPRINGS   PTSUNNY   66  38  35 W8        30.12S                  
DIXON          FAIR      71  31  23 S8        30.14R                  
RAWLINS        FAIR      69  37  30 VRB3      30.13F                  
SARATOGA       FAIR      70  36  28 SE7       30.14R                  
LARAMIE        FAIR      74  33  22 S9        30.14S                  
CHEYENNE       FAIR      73  49  42 CALM      30.07R                  
TORRINGTON     FAIR      72  61  68 SE5       29.98R                  
PINE BLUFFS    FAIR      68  55  64 CALM      30.04R                  

$$
  

000
ASUS45 KCYS 231610
RWRWY 

WYOMING REGIONAL WEATHER ROUNDUP
NATIONAL WEATHER SERVICE CHEYENNE WY
1000 AM MDT FRI AUG 23 2019

NOTE:  "FAIR" INDICATES FEW OR NO CLOUDS BELOW 12,000 FEET
WITH NO SIGNIFICANT WEATHER AND/OR OBSTRUCTIONS TO VISIBILITY.

WYZ001-231700-
...YELLOWSTONE NATIONAL PARK...
  
CITY           SKY/WX    TMP DP  RH WIND       PRES   REMARKS
LK YELLOWSTONE   N/A     52  44  74 SE5       30.22R                  
W YELLOWSTONE  NOT AVBL                                               

$$
WYZ002>013-054>058-071-098>099-231700-
...NORTHERN WYOMING...
  
CITY           SKY/WX    TMP DP  RH WIND       PRES   REMARKS
JACKSON        MOSUNNY   54  40  59 CALM      30.14S                  
CODY           SUNNY     63  51  65 NE9       30.10S                  
GREYBULL       MOSUNNY   70  50  49 SE8       30.01S                  
WORLAND        CLOUDY    66  51  58 NW6       30.04R                  
SHERIDAN       CLOUDY    65  56  72 NW8       30.06R                  
BUFFALO        PTSUNNY   65  53  65 N12       30.09S                  
GILLETTE       SUNNY     68  58  70 N9        30.03R                  
HULETT         CLOUDY    63  61  94 CALM      30.03R                  
NEWCASTLE      FAIR      70  54  56 W6        30.01R                  

$$
WYZ014>020-022>026-101>103-231700-
...CENTRAL WYOMING...
  
CITY           SKY/WX    TMP DP  RH WIND       PRES   REMARKS
BIG PINEY      SUNNY     61  37  41 VRB3      30.15S                  
PINEDALE       SUNNY     61  34  36 CALM      30.16R                  
DUBOIS         FAIR      54  34  47 N5        30.16S                  
LANDER         PTSUNNY   63  47  55 NW5       30.09F                  
RIVERTON       PTSUNNY   66  47  50 NE13      30.08S                  
CASPER         CLOUDY    63  53  70 N10       30.09R                  
DOUGLAS          N/A     70  55  59 NW10      30.05S                  

$$
WYZ021-027>030-104>119-231700-
...SOUTHERN WYOMING...
  
CITY           SKY/WX    TMP DP  RH WIND       PRES   REMARKS
EVANSTON       SUNNY     61  38  42 CALM      30.16R                  
KEMMERER       SUNNY     63  36  36 CALM      30.17S                  
FORT BRIDGER   NOT AVBL                                               
ROCK SPRINGS   PTSUNNY   66  38  35 W8        30.12S                  
DIXON          FAIR      71  31  23 S8        30.14R                  
RAWLINS        MOSUNNY   69  37  30 VRB3      30.13F                  
SARATOGA       FAIR      70  36  28 SE7       30.14R                  
LARAMIE        PTSUNNY   74  33  22 S9        30.14S                  
CHEYENNE       MOSUNNY   73  49  42 CALM      30.07R                  
TORRINGTON     MOSUNNY   72  61  68 SE5       29.98R                  
PINE BLUFFS    FAIR      68  55  64 CALM      30.04R                  

$$